Flag for Cambodia Weather past 2 weeks in Phnom Penh, Cambodia

Now
75 °F

Partly cloudy.


Feels Like: 74 °F
Forecast: 74 / 89 °F
Wind: No wind

Location: Ubon Ratchathani Airport

Current Time: Aug 30, 2014 at 5:54:00 AM

Latest Report: Aug 30, 2014 at 5:00 AM


Visibility: 6 mi

Pressure: 29.80 "Hg

Humidity: 94%

Dew point: 73 °F

Location of Phnom PenhLocation

Historic Weather in Phnom Penh — Graph

°F

Phnom Penh temperature yesterday

Maximum temperature yesterday: 88 °F (at 1:00 PM)
Minimum temperature yesterday: 75 °F (at 4:00 AM)
Average temperature yesterday: 80 °F

Past Weeks' High & Low Weather Summary

 TemperatureHumidityPressure
High97 °F (Aug 24, 3:00 PM)100% (Aug 15, 10:00 PM)29.89 "Hg (Aug 15, 10:00 PM)
Low73 °F (Aug 26, 7:00 AM)44% (Aug 24, 3:00 PM)29.65 "Hg (Aug 24, 4:00 PM)
Average83 °F80%29.77 "Hg
* Reported Aug 15 4:00 AM — Aug 30 4:00 AM, Phnom Penh, Weather by CustomWeather, © 2014

Note: Actual official high and low records may vary slightly from our data, if they occured in-between our weather recording intervals... More about our weather records

Advertising

Phnom Penh weather history for previous 24 hours

 ConditionsComfort  
Time TempWeatherWind HumidityBarometerVisibility
4:00 AM
Aug 30
77 °FPassing clouds.No wind94%29.80 "Hg6 mi
2:00 AM77 °FPassing clouds.No wind94%29.80 "Hg6 mi
1:00 AM77 °FPartly cloudy.No wind94%29.80 "Hg6 mi
12:00 AM77 °FPassing clouds.2 mph94%29.83 "HgN/A
11:00 PM
Aug 29
77 °FPassing clouds.No wind94%29.83 "HgN/A
10:00 PM79 °FPassing clouds.2 mph89%29.83 "HgN/A
9:00 PM79 °FPassing clouds.No wind89%29.83 "HgN/A
8:00 PM79 °FPartly cloudy.2 mph89%29.80 "HgN/A
7:00 PM79 °FPassing clouds.3 mph89%29.77 "HgN/A
6:00 PM79 °FPartly sunny.No wind94%29.74 "HgN/A
5:30 PM79 °FPartly sunny.3 mph94%29.74 "HgN/A
5:00 PM79 °FThunderstorms. Broken clouds.2 mph94%29.71 "Hg6 mi
4:00 PM82 °FLight rain. Broken clouds.8 mph79%29.68 "Hg6 mi
3:00 PM86 °FBroken clouds.3 mph66%29.68 "HgN/A
2:00 PM88 °FBroken clouds.3 mph66%29.71 "HgN/A
1:00 PM88 °FBroken clouds.3 mph62%29.74 "HgN/A
12:00 PM86 °FBroken clouds.2 mph70%29.74 "HgN/A
11:00 AM84 °FBroken clouds.3 mph74%29.77 "HgN/A
10:00 AM86 °FBroken clouds.3 mph70%29.80 "HgN/A
9:00 AM82 °FBroken clouds.6 mph79%29.80 "HgN/A
8:00 AM79 °FBroken clouds.5 mph89%29.80 "HgN/A
7:00 AM77 °FPartly sunny.3 mph100%29.77 "Hg6 mi
6:30 AM75 °FBroken clouds.2 mph100%29.77 "Hg5 mi
6:00 AM75 °FBroken clouds.No wind100%29.74 "Hg5 mi
5:00 AM75 °FPartly cloudy.No wind100%29.74 "Hg6 mi
Weather by CustomWeather, © 2014

See weather overviewHow to use our weather pages